Weather History for KCBK - July, 2013

Change the Weather History Date:

Monday, July 1, 2013

  Actual Average (KGLD) Record (KGLD)
Temperature  
Mean Temperature 66 °F 74 °F  
Max Temperature 80 °F 89 °F 106 °F (1990)
Min Temperature 51 °F 60 °F 44 °F (1959)
Degree Days  
Heating Degree Days 0 0  
Month to date heating degree days 0  
Since 1 June heating degree days 37  
Since 1 July heating degree days 0  
Cooling Degree Days 0 10  
Month to date cooling degree days 10  
Year to date cooling degree days 230  
Since 1 June cooling degree days 189  
Growing Degree Days 16 (Base 50)    
Moisture  
Dew Point 49 °F    
Average Humidity 58    
Maximum Humidity 94    
Minimum Humidity 28    
Precipitation  
Precipitation 0.00 in 0.10 in 2.40 in (1940)
Month to date precipitation 0.10  
Year to date precipitation 9.83  
Snow  
Snow 0.00 in 0.00 in - ()
Month to date snowfall 0.0  
Since 1 June snowfall 0.0  
Since 1 July snowfall 0.0  
Snow Depth -    
Sea Level Pressure  
Sea Level Pressure 30.25 in    
Wind  
Wind Speed 6 mph (ENE)    
Max Wind Speed 15 mph    
Max Gust Speed 22 mph    
Visibility 10 miles    
Events      
T = Trace of Precipitation, MM = Missing Value Source: NWS Daily Summary

Daily Weather History Graph

Daily Weather History Graph

Search for Another Location

Airport or City:

Trip Planner

Search our weather history database for the weather conditions in past years. The results will help you decide how hot, cold, wet, or windy it might be!

Date:

Astronomy

Jul. 01, 2013 Rise Set
Actual Time 6:21 AM CDT 9:15 PM CDT
Civil Twilight 5:48 AM CDT 9:47 PM CDT
Nautical Twilight 5:08 AM CDT 10:27 PM CDT
Astronomical Twilight 4:21 AM CDT 11:14 PM CDT
Moon 1:50 AM CDT (7/1) 3:33 PM CDT (7/1)
Length of Visible Light 15h 58m
Length of Day
14h 54m
Waning Crescent, 35% of the Moon is Illuminated
Jul 1
Waning Crescent
Jul 8
New
Jul 15
First Quarter
Jul 22
Full
Jul 29
Last Quarter

Hourly Weather History & Observations

Time (CDT) Temp. Dew Point Humidity Pressure Visibility Wind Dir Wind Speed Gust Speed Precip Events Conditions
12:15 AM 62.6 °F 51.8 °F 68% 30.21 in 10.0 mi East 4.6 mph - N/A   Scattered Clouds
12:35 AM 60.8 °F 51.8 °F 72% 30.22 in 10.0 mi ESE 4.6 mph - N/A   Clear
12:55 AM 60.8 °F 51.8 °F 72% 30.23 in 10.0 mi East 6.9 mph - N/A   Clear
1:15 AM 59.0 °F 51.8 °F 77% 30.23 in 10.0 mi East 6.9 mph - N/A   Clear
1:35 AM 59.0 °F 51.8 °F 77% 30.24 in 10.0 mi East 6.9 mph - N/A   Clear
1:55 AM 57.2 °F 51.8 °F 82% 30.24 in 10.0 mi East 6.9 mph - N/A   Clear
2:15 AM 57.2 °F 51.8 °F 82% 30.24 in 10.0 mi East 5.8 mph - N/A   Clear
2:35 AM 55.4 °F 51.8 °F 88% 30.24 in 10.0 mi ESE 5.8 mph - N/A   Clear
2:55 AM 55.4 °F 51.8 °F 88% 30.24 in 10.0 mi ESE 3.5 mph - N/A   Clear
3:15 AM 55.4 °F 51.8 °F 88% 30.24 in 10.0 mi ESE 5.8 mph - N/A   Clear
3:35 AM 55.4 °F 51.8 °F 88% 30.24 in 10.0 mi SE 3.5 mph - N/A   Clear
3:55 AM 55.4 °F 51.8 °F 88% 30.24 in 10.0 mi SE 3.5 mph - N/A   Clear
4:15 AM 55.4 °F 50.0 °F 82% 30.25 in 10.0 mi Calm Calm - N/A   Clear
4:35 AM 51.8 °F 50.0 °F 94% 30.25 in 10.0 mi West 3.5 mph - N/A   Clear
4:55 AM 51.8 °F 50.0 °F 94% 30.25 in 10.0 mi West 4.6 mph - N/A   Clear
5:15 AM 51.8 °F 50.0 °F 94% 30.26 in 10.0 mi Calm Calm - N/A   Clear
5:35 AM 51.8 °F 50.0 °F 94% 30.26 in 10.0 mi West 3.5 mph - N/A   Clear
5:55 AM 53.6 °F 50.0 °F 88% 30.26 in 10.0 mi Calm Calm - N/A   Clear
6:15 AM 51.8 °F 50.0 °F 94% 30.27 in 10.0 mi Calm Calm - N/A   Clear
6:35 AM 51.8 °F 50.0 °F 94% 30.27 in 10.0 mi West 6.9 mph - N/A   Clear
6:55 AM 51.8 °F 50.0 °F 94% 30.27 in 10.0 mi West 6.9 mph - N/A   Clear
7:15 AM 53.6 °F 51.8 °F 94% 30.27 in 10.0 mi Calm Calm - N/A   Clear
7:35 AM 59.0 °F 53.6 °F 82% 30.28 in 10.0 mi Calm Calm - N/A   Clear
7:55 AM 60.8 °F 53.6 °F 77% 30.28 in 10.0 mi Calm Calm - N/A   Clear
8:15 AM 62.6 °F 53.6 °F 72% 30.29 in 10.0 mi Calm Calm - N/A   Clear
8:35 AM 64.4 °F 51.8 °F 64% 30.29 in 10.0 mi SE 4.6 mph - N/A   Clear
8:55 AM 64.4 °F 51.8 °F 64% 30.30 in 10.0 mi ESE 3.5 mph - N/A   Clear
9:15 AM 64.4 °F 51.8 °F 64% 30.30 in 10.0 mi ESE 3.5 mph - N/A   Clear
9:35 AM 66.2 °F 51.8 °F 60% 30.30 in 10.0 mi Calm Calm - N/A   Clear
9:55 AM 68.0 °F 51.8 °F 56% 30.30 in 10.0 mi East 4.6 mph - N/A   Clear
10:15 AM 69.8 °F 51.8 °F 53% 30.29 in 10.0 mi East 4.6 mph - N/A   Clear
10:35 AM 69.8 °F 51.8 °F 53% 30.29 in 10.0 mi East 4.6 mph - N/A   Clear
10:55 AM 71.6 °F 50.0 °F 46% 30.29 in 10.0 mi ENE 3.5 mph - N/A   Clear
11:15 AM 71.6 °F 50.0 °F 46% 30.29 in 10.0 mi Calm Calm - N/A   Clear
11:35 AM 71.6 °F 50.0 °F 46% 30.29 in 10.0 mi ENE 6.9 mph - N/A   Clear
11:55 AM 73.4 °F 50.0 °F 44% 30.29 in 10.0 mi ENE 6.9 mph - N/A   Clear
12:15 PM 73.4 °F 50.0 °F 44% 30.28 in 10.0 mi NW 3.5 mph - N/A   Clear
12:35 PM 73.4 °F 50.0 °F 44% 30.27 in 10.0 mi NE 6.9 mph - N/A   Clear
12:55 PM 77.0 °F 50.0 °F 39% 30.27 in 10.0 mi ENE 11.5 mph - N/A   Clear
1:15 PM 75.2 °F 50.0 °F 41% 30.27 in 10.0 mi NNE 5.8 mph - N/A   Scattered Clouds
1:35 PM 78.8 °F 50.0 °F 36% 30.27 in 10.0 mi NE 5.8 mph 19.6 mph N/A   Scattered Clouds
1:55 PM 77.0 °F 50.0 °F 39% 30.26 in 10.0 mi ENE 9.2 mph - N/A   Scattered Clouds
2:15 PM 78.8 °F 50.0 °F 36% 30.26 in 10.0 mi NNE 8.1 mph 16.1 mph N/A   Scattered Clouds
2:35 PM 78.8 °F 50.0 °F 36% 30.25 in 10.0 mi NE 12.7 mph - N/A   Scattered Clouds
2:55 PM 77.0 °F 50.0 °F 39% 30.25 in 10.0 mi ENE 10.4 mph - N/A   Mostly Cloudy
3:15 PM 78.8 °F 50.0 °F 36% 30.24 in 10.0 mi NE 9.2 mph - N/A   Scattered Clouds
3:35 PM 78.8 °F 48.2 °F 34% 30.24 in 10.0 mi NNE 8.1 mph 21.9 mph N/A   Scattered Clouds
3:55 PM 78.8 °F 48.2 °F 34% 30.24 in 10.0 mi ENE 9.2 mph 20.7 mph N/A   Scattered Clouds
4:15 PM 78.8 °F 46.4 °F 32% 30.24 in 10.0 mi NE 12.7 mph 17.3 mph N/A   Scattered Clouds
4:35 PM 80.6 °F 46.4 °F 30% 30.23 in 10.0 mi NNE 8.1 mph 18.4 mph N/A   Clear
4:55 PM 80.6 °F 46.4 °F 30% 30.23 in 10.0 mi ENE 10.4 mph 18.4 mph N/A   Clear
5:15 PM 80.6 °F 44.6 °F 28% 30.23 in 10.0 mi East 13.8 mph - N/A   Clear
5:35 PM 80.6 °F 44.6 °F 28% 30.23 in 10.0 mi ENE 9.2 mph 18.4 mph N/A   Clear
5:55 PM 78.8 °F 46.4 °F 32% 30.23 in 10.0 mi East 8.1 mph 17.3 mph N/A   Clear
6:15 PM 80.6 °F 46.4 °F 30% 30.22 in 10.0 mi NE 13.8 mph 18.4 mph N/A   Clear
6:35 PM 78.8 °F 46.4 °F 32% 30.21 in 10.0 mi ENE 11.5 mph - N/A   Clear
6:55 PM 78.8 °F 46.4 °F 32% 30.21 in 10.0 mi East 13.8 mph - N/A   Clear
7:15 PM 77.0 °F 46.4 °F 34% 30.22 in 10.0 mi ENE 15.0 mph - N/A   Clear
7:35 PM 77.0 °F 46.4 °F 34% 30.23 in 10.0 mi ENE 15.0 mph 18.4 mph N/A   Clear
7:55 PM 75.2 °F 44.6 °F 34% 30.23 in 10.0 mi ENE 9.2 mph - N/A   Clear
8:15 PM 73.4 °F 44.6 °F 36% 30.23 in 10.0 mi ENE 9.2 mph - N/A   Clear
8:35 PM 71.6 °F 46.4 °F 41% 30.24 in 10.0 mi East 6.9 mph - N/A   Clear
8:55 PM 69.8 °F 44.6 °F 40% 30.24 in 10.0 mi ENE 6.9 mph - N/A   Clear
9:15 PM 68.0 °F 44.6 °F 43% 30.24 in 10.0 mi East 9.2 mph - N/A   Clear
9:35 PM 64.4 °F 44.6 °F 49% 30.24 in 10.0 mi ENE 9.2 mph - N/A   Clear
9:55 PM 60.8 °F 46.4 °F 59% 30.25 in 10.0 mi East 6.9 mph - N/A   Clear
10:15 PM 60.8 °F 44.6 °F 55% 30.25 in 10.0 mi ENE 5.8 mph - N/A   Clear
10:35 PM 60.8 °F 44.6 °F 55% 30.26 in 10.0 mi ENE 9.2 mph - N/A   Clear
10:55 PM 59.0 °F 44.6 °F 59% 30.26 in 10.0 mi ENE 9.2 mph - N/A   Clear
11:15 PM 59.0 °F 44.6 °F 59% 30.27 in 10.0 mi ENE 6.9 mph - N/A   Clear
11:35 PM 57.2 °F 44.6 °F 63% 30.27 in 10.0 mi East 6.9 mph - N/A   Clear
11:55 PM 57.2 °F 44.6 °F 63% 30.27 in 10.0 mi East 5.8 mph - N/A   Clear